Los Alamos, NM

7:20 PM MST on February 20, 2017 (GMT -0700)
Los Alamos

Weather History for KLAM - April, 2013

Change the Weather History Date:

Wednesday, April 24, 2013

  Actual Average Record
Temperature  
Mean Temperature 42 °F -  
Max Temperature 63 °F 63 °F 77 °F (1950)
Min Temperature 22 °F 36 °F 22 °F (2013)
Degree Days  
Heating Degree Days 22    
Moisture  
Dew Point 15 °F    
Average Humidity 42    
Maximum Humidity 85    
Minimum Humidity 11    
Precipitation  
Precipitation 0.00 in - - ()
Sea Level Pressure  
Sea Level Pressure 30.17 in    
Wind  
Wind Speed 8 mph (South)    
Max Wind Speed 14 mph    
Max Gust Speed 23 mph    
Visibility 10 miles    
Events      
Averages and records for this station are not official NWS values.
T = Trace of Precipitation, MM = Missing Value Source: NWS Daily Summary

Daily Weather History Graph

Daily Weather History Graph

Search for Another Location

Airport or City:

Trip Planner

Search our weather history database for the weather conditions in past years. The results will help you decide how hot, cold, wet, or windy it might be!

Date:

Astronomy

Apr. 24, 2013 Rise Set
Actual Time 6:20 AM MDT 7:46 PM MDT
Civil Twilight 5:53 AM MDT 8:13 PM MDT
Nautical Twilight 5:21 AM MDT 8:45 PM MDT
Astronomical Twilight 4:47 AM MDT 9:19 PM MDT
Moon 6:53 PM MDT (4/24) 5:23 AM MDT (4/24)
Length of Visible Light 14h 19m
Length of Day
13h 26m
Waxing Gibbous, 98% of the Moon is Illuminated
Apr 24
Waxing Gibbous
Apr 25
Full
May 2
Last Quarter
May 9
New
May 17
First Quarter

Hourly Weather History & Observations

Time (MDT) Temp. Windchill Dew Point Humidity Pressure Visibility Wind Dir Wind Speed Gust Speed Precip Events Conditions
12:15 AM 32.0 °F 23.6 °F 21.0 °F 64% 30.19 in 10.0 mi South 10.4 mph - N/A   Clear
12:35 AM 31.3 °F 22.7 °F 21.2 °F 66% 30.19 in 10.0 mi South 10.4 mph - N/A   Clear
12:55 AM 30.7 °F 22.0 °F 21.0 °F 67% 30.19 in 10.0 mi South 10.4 mph - N/A   Clear
1:15 AM 30.0 °F 26.5 °F 20.8 °F 69% 30.18 in 10.0 mi SSE 3.5 mph - N/A   Clear
1:35 AM 29.7 °F 23.7 °F 20.7 °F 69% 30.18 in 10.0 mi SSE 5.8 mph - N/A   Clear
1:55 AM 29.3 °F 22.3 °F 20.8 °F 71% 30.17 in 10.0 mi South 6.9 mph - N/A   Clear
2:15 AM 28.6 °F 21.5 °F 20.5 °F 72% 30.15 in 10.0 mi SSW 6.9 mph - N/A   Clear
2:35 AM 28.4 °F 21.2 °F 20.3 °F 72% 30.15 in 10.0 mi South 6.9 mph - N/A   Clear
2:55 AM 28.4 °F 20.4 °F 20.1 °F 71% 30.15 in 10.0 mi South 8.1 mph - N/A   Clear
3:15 AM 27.9 °F 19.8 °F 20.3 °F 73% 30.16 in 10.0 mi SSW 8.1 mph - N/A   Clear
3:35 AM 27.3 °F 19.1 °F 19.8 °F 73% 30.16 in - SSW 8.1 mph - N/A   Clear
3:55 AM 27.1 °F 17.5 °F 19.8 °F 74% 30.17 in - South 10.4 mph - N/A   Clear
4:15 AM 26.6 °F 17.5 °F 19.4 °F 74% 30.17 in - South 9.2 mph - N/A   Clear
4:35 AM 25.7 °F 16.4 °F 19.4 °F 77% 30.16 in - SSW 9.2 mph - N/A   Clear
4:55 AM 25.3 °F 17.6 °F 19.2 °F 78% 30.16 in - SW 6.9 mph - N/A   Clear
5:15 AM 26.1 °F 17.6 °F 19.4 °F 76% 30.15 in - SSW 8.1 mph - N/A   Clear
5:35 AM 25.7 °F 16.4 °F 19.2 °F 76% 30.17 in - South 9.2 mph - N/A   Clear
5:55 AM 24.1 °F 13.7 °F 18.9 °F 80% 30.17 in - South 10.4 mph - N/A   Clear
6:15 AM 22.8 °F 12.2 °F 18.9 °F 85% 30.18 in - South 10.4 mph - N/A   Unknown
6:35 AM 22.8 °F 13.6 °F 19.0 °F 85% 30.19 in 10.0 mi South 8.1 mph - N/A   Clear
6:55 AM 22.6 °F 13.4 °F 18.9 °F 85% 30.20 in 10.0 mi South 8.1 mph - N/A   Clear
7:15 AM 22.8 °F 16.7 °F 18.9 °F 85% 30.21 in 10.0 mi South 4.6 mph - N/A   Clear
7:35 AM 23.9 °F 16.8 °F 19.2 °F 82% 30.20 in 10.0 mi SSW 5.8 mph - N/A   Clear
7:55 AM 25.3 °F 21.1 °F 19.6 °F 79% 30.20 in 10.0 mi SSW 3.5 mph - N/A   Clear
8:15 AM 27.5 °F 22.2 °F 19.6 °F 72% 30.21 in 10.0 mi South 4.6 mph - N/A   Clear
8:35 AM 29.3 °F 25.6 °F 19.4 °F 67% 30.21 in 10.0 mi SE 3.5 mph - N/A   Clear
8:55 AM 31.3 °F 27.9 °F 19.2 °F 61% 30.22 in 10.0 mi SE 3.5 mph - N/A   Clear
9:15 AM 32.0 °F 28.7 °F 18.9 °F 58% 30.21 in 10.0 mi SSE 3.5 mph - N/A   Clear
9:35 AM 33.6 °F 30.6 °F 18.7 °F 54% 30.21 in 10.0 mi ESE 3.5 mph - N/A   Clear
9:55 AM 34.9 °F 30.8 °F 18.5 °F 51% 30.22 in 10.0 mi East 4.6 mph - N/A   Clear
10:15 AM 35.6 °F 31.7 °F 18.3 °F 50% 30.22 in 10.0 mi SE 4.6 mph - N/A   Clear
10:35 AM 37.4 °F - 17.4 °F 44% 30.21 in 10.0 mi Calm Calm - N/A   Clear
10:55 AM 39.6 °F 37.4 °F 16.0 °F 38% 30.21 in 10.0 mi SE 3.5 mph - N/A   Clear
11:15 AM 41.0 °F 37.1 °F 15.8 °F 36% 30.21 in 10.0 mi SSE 5.8 mph - N/A   Clear
11:35 AM 42.8 °F 39.3 °F 14.7 °F 32% 30.21 in 10.0 mi SE 5.8 mph - N/A   Clear
11:55 AM 44.2 °F 40.3 °F 14.7 °F 30% 30.20 in 10.0 mi ESE 6.9 mph - N/A   Clear
12:15 PM 46.9 °F - 13.3 °F 26% 30.19 in 10.0 mi ESE 3.5 mph - N/A   Clear
12:35 PM 49.1 °F - 9.9 °F 21% 30.19 in 10.0 mi South 8.1 mph - N/A   Clear
12:55 PM 50.2 °F - 9.3 °F 19% 30.18 in 10.0 mi SSE 8.1 mph - N/A   Clear
1:15 PM 51.3 °F - 8.1 °F 18% 30.17 in 10.0 mi ESE 8.1 mph - N/A   Clear
1:35 PM 52.3 °F - 8.1 °F 17% 30.17 in 10.0 mi SE 5.8 mph - N/A   Clear
1:55 PM 54.1 °F - 8.8 °F 16% 30.16 in 10.0 mi SW 3.5 mph - N/A   Clear
2:15 PM 55.4 °F - 9.0 °F 16% 30.15 in 10.0 mi SE 10.4 mph - N/A   Clear
2:35 PM 54.9 °F - 9.0 °F 16% 30.15 in 10.0 mi ESE 8.1 mph - N/A   Clear
2:55 PM 58.3 °F - 9.9 °F 15% 30.14 in 10.0 mi ENE 4.6 mph 16.1 mph N/A   Clear
3:15 PM 59.7 °F - 10.2 °F 14% 30.13 in 10.0 mi South 9.2 mph - N/A   Clear
3:35 PM 59.5 °F - 10.4 °F 14% 30.12 in 10.0 mi ESE 10.4 mph 16.1 mph N/A   Clear
3:55 PM 61.5 °F - 10.8 °F 14% 30.11 in 10.0 mi NE 10.4 mph 23.0 mph N/A   Clear
4:15 PM 60.6 °F - 7.0 °F 12% 30.11 in 10.0 mi SW 8.1 mph 17.3 mph N/A   Clear
4:35 PM 63.7 °F - 7.3 °F 11% 30.10 in 10.0 mi WNW 13.8 mph 18.4 mph N/A   Clear
4:55 PM 60.8 °F - 9.3 °F 13% 30.10 in 10.0 mi Calm Calm - N/A   Clear
5:15 PM 60.8 °F - 10.0 °F 14% 30.10 in 10.0 mi South 11.5 mph 17.3 mph N/A   Clear
5:35 PM 61.2 °F - 9.9 °F 13% 30.10 in 10.0 mi South 8.1 mph 17.3 mph N/A   Clear
5:55 PM 61.0 °F - 9.9 °F 13% 30.11 in 10.0 mi South 13.8 mph - N/A   Clear
6:15 PM 59.4 °F - 9.5 °F 14% 30.11 in 10.0 mi South 9.2 mph 20.7 mph N/A   Clear
6:35 PM 59.0 °F - 9.5 °F 14% 30.12 in 10.0 mi South 10.4 mph 16.1 mph N/A   Clear
6:55 PM 58.6 °F - 9.5 °F 14% 30.12 in 10.0 mi South 10.4 mph 17.3 mph N/A   Clear
7:15 PM 58.1 °F - 9.1 °F 14% 30.13 in 10.0 mi South 9.2 mph 17.3 mph N/A   Clear
7:35 PM 57.7 °F - 9.0 °F 14% 30.14 in 10.0 mi South 8.1 mph - N/A   Clear
7:55 PM 57.2 °F - 8.6 °F 14% 30.15 in 10.0 mi South 8.1 mph - N/A   Clear
9:15 PM 55.4 °F - 9.0 °F 16% 30.19 in 10.0 mi WSW 5.8 mph - N/A   Clear
9:35 PM 55.4 °F - 9.5 °F 16% 30.20 in 10.0 mi SW 6.9 mph - N/A   Clear
9:55 PM 55.4 °F - 10.0 °F 16% 30.20 in 10.0 mi WSW 5.8 mph - N/A   Clear
10:15 PM 54.7 °F - 11.1 °F 18% 30.19 in 10.0 mi WSW 5.8 mph - N/A   Clear
10:35 PM 54.5 °F - 11.3 °F 18% 30.19 in 10.0 mi West 8.1 mph - N/A   Clear
10:55 PM 54.5 °F - 11.1 °F 18% 30.19 in 10.0 mi West 6.9 mph - N/A   Clear
11:15 PM 51.8 °F - 11.3 °F 20% 30.20 in 10.0 mi SE 9.2 mph - N/A   Clear
11:35 PM 51.8 °F - 12.7 °F 21% 30.20 in 10.0 mi South 6.9 mph - N/A   Clear
11:55 PM 50.9 °F - 14.9 °F 24% 30.20 in 10.0 mi South 6.9 mph - N/A   Clear